This is the latest recevied weather packets stored in our database for station/object K1BWE-1. If no packets are shown the sender has not sent any weather packets the latest 10 day(s).
| Time | Temp. | Humidity | Pressure | Rain* | Wind** | Luminosity | Snow |
|---|---|---|---|---|---|---|---|
| 1777523902 | 20.56° C | 17% | 1015.9 hPa | 0 mm | - | 0 W/m² | - |
| 1777523600 | 20.56° C | 17% | 1015.9 hPa | 0 mm | - | 0 W/m² | - |
| 1777523296 | 20.56° C | 16% | 1016.1 hPa | 0 mm | - | 0 W/m² | - |
| 1777522991 | 20° C | 17% | 1015.8 hPa | 0 mm | - | 0 W/m² | - |
| 1777522690 | 20° C | 18% | 1015.9 hPa | 0 mm | - | 0 W/m² | - |
| 1777522385 | 20° C | 18% | 1015.5 hPa | 0 mm | - | 0 W/m² | - |
| 1777522083 | 20.56° C | 18% | 1015.9 hPa | 0 mm | - | 0 W/m² | - |
| 1777521779 | 20.56° C | 18% | 1015.6 hPa | 0 mm | - | 0 W/m² | - |
| 1777521475 | 20.56° C | 18% | 1015.8 hPa | 0 mm | - | 0 W/m² | - |
| 1777521172 | 20.56° C | 19% | 1015.5 hPa | 0 mm | - | 0 W/m² | - |
| 1777520870 | 20.56° C | 18% | 1015.4 hPa | 0 mm | - | 0 W/m² | - |
| 1777520567 | 21.11° C | 18% | 1015.5 hPa | 0 mm | - | 0 W/m² | - |
| 1777520263 | 21.11° C | 18% | 1015.2 hPa | 0 mm | - | 0 W/m² | - |
| 1777519962 | 20.56° C | 18% | 1015.4 hPa | 0 mm | - | 0 W/m² | - |
| 1777519658 | 20.56° C | 19% | 1015.3 hPa | 0 mm | - | 0 W/m² | - |
| 1777519354 | 20.56° C | 19% | 1015.2 hPa | 0 mm | - | 0 W/m² | - |
| 1777519052 | 21.11° C | 18% | 1015.1 hPa | 0 mm | - | 0 W/m² | - |
| 1777518747 | 21.11° C | 18% | 1014.9 hPa | 0 mm | - | 0 W/m² | - |
| 1777518444 | 21.11° C | 18% | 1015 hPa | 0 mm | - | 0 W/m² | - |
| 1777518139 | 21.67° C | 18% | 1014.9 hPa | 0 mm | - | 0 W/m² | - |
| 1777517836 | 21.11° C | 18% | 1015.1 hPa | 0 mm | - | 0 W/m² | - |
| 1777517531 | 21.11° C | 19% | 1015 hPa | 0 mm | - | 0 W/m² | - |
| 1777517230 | 21.11° C | 18% | 1014.7 hPa | 0 mm | - | 0 W/m² | - |
| 1777516929 | 21.11° C | 18% | 1014.7 hPa | 0 mm | - | 0 W/m² | - |
| 1777516625 | 21.67° C | 18% | 1014.8 hPa | 0 mm | - | 0 W/m² | - |
* Rain latest hour (hover to see other rain measurements)
** Current wind speed in m/s (hover to see current wind gust speed)